1484334001.03,51976,6.06,71306.8,-10.71,-12.35,-12.25,0,*6A
1484334002.25,51977,6.0,71306.0,-10.69,-12.21,-12.25,0,*67
1484334003.52,51978,6.06,71306.5,-10.69,-12.35,-12.35,0,*6C
1484334004.74,51979,6.0,71306.0,-10.73,-12.39,-12.39,0,*66
1484334006.01,51980,6.0,71306.3,-10.71,-12.35,-12.25,0,*63
1484334007.28,51981,6.06,71308.5,-10.71,-12.25,-12.35,0,*62
1484334008.55,51982,6.0,71304.0,-10.69,-12.35,-12.35,0,*69
1484334009.82,51983,6.0,71306.5,-10.71,-12.25,-12.35,0,*60
1484334011.06,51984,6.06,71308.0,-10.71,-12.25,-12.25,0,*66
1484334012.33,51985,6.0,71306.3,-10.71,-12.25,-12.35,0,*66
1484334013.63,51986,6.0,71306.3,-10.71,-12.35,-12.35,0,*64
1484334014.92,51987,6.06,71306.8,-10.71,-12.35,-12.35,0,*65
1484334016.21,51988,6.0,71306.0,-10.71,-12.35,-12.35,0,*6A
1484334017.44,51989,6.06,71308.0,-10.73,-12.29,-12.39,0,*68
1484334018.71,51990,6.0,71306.5,-10.71,-12.21,-12.35,0,*66
1484334020.01,51991,6.06,71304.8,-10.71,-12.35,-12.35,0,*62
1484334021.28,51992,6.0,71304.3,-10.71,-12.25,-12.35,0,*60
1484334022.57,51993,6.06,71306.0,-10.71,-12.35,-12.35,0,*60
1484334023.84,51994,6.06,71304.8,-10.71,-12.25,-12.35,0,*66
1484334025.09,51995,6.06,71306.5,-10.69,-12.25,-12.35,0,*6E
1484334026.34,51996,6.06,71304.3,-10.69,-12.25,-12.35,0,*6D
1484334027.56,51997,6.0,71306.8,-10.69,-12.21,-12.25,0,*69
1484334028.81,51998,6.06,71304.3,-10.69,-12.21,-12.35,0,*67
1484334030.1,51999,6.06,71304.5,-10.71,-12.35,-12.35,0,*6A
1484334031.38,52000,6.06,71304.0,-10.71,-12.25,-12.35,0,*61
1484334032.65,52001,6.06,71304.3,-10.71,-12.25,-12.35,0,*60
1484334033.92,52002,6.06,71306.5,-10.71,-12.25,-12.35,0,*63
1484334035.19,52003,6.06,71306.5,-10.71,-12.25,-12.35,0,*62
1484334036.41,52004,6.06,71302.3,-10.73,-12.29,-12.39,0,*67
1484334037.69,52005,6.0,71302.5,-10.71,-12.21,-12.35,0,*60
1484334038.96,52006,6.0,71304.3,-10.71,-12.21,-12.35,0,*63
1484334040.23,52007,6.0,71302.8,-10.71,-12.25,-12.35,0,*66
1484334041.46,52008,6.0,71302.0,-10.73,-12.29,-12.29,0,*6A
1484334042.68,52009,6.0,71302.3,-10.73,-12.25,-12.25,0,*6B
1484334043.92,52010,6.0,71300.8,-10.71,-12.21,-12.21,0,*61
1484334045.18,52011,6.0,71304.5,-10.69,-12.21,-12.35,0,*6C
1484334046.45,52012,6.0,71304.8,-10.71,-12.21,-12.35,0,*66
1484334047.74,52013,6.0,71302.0,-10.71,-12.35,-12.35,0,*62
1484334049.01,52014,6.0,71302.0,-10.71,-12.35,-12.47,0,*60
1484334050.25,52015,6.06,71306.3,-10.71,-12.25,-12.39,0,*69
1484334051.52,52016,6.0,71304.5,-10.71,-12.25,-12.35,0,*66
1484334052.75,52017,6.0,71306.5,-10.73,-12.25,-12.39,0,*69
1484334054.02,52018,6.0,71304.0,-10.71,-12.21,-12.35,0,*6C
1484334055.32,52019,6.0,71304.0,-10.71,-12.35,-12.35,0,*68
1484334056.53,52020,6.0,71304.5,-10.73,-12.39,-12.43,0,*6D
1484334057.78,52021,6.0,71302.3,-10.71,-12.25,-12.39,0,*6E
1484334059.02,52022,6.0,71302.0,-10.71,-12.25,-12.39,0,*6D
1484334060.24,52023,6.06,71306.8,-10.69,-12.21,-12.25,0,*6C
1484334061.51,52024,6.0,71304.3,-10.71,-12.11,-12.21,0,*65
1484334062.78,52025,6.0,71304.0,-10.71,-12.11,-12.21,0,*64
1484334064.02,52026,6.06,71304.3,-10.71,-12.21,-12.25,0,*60
1484334065.3,52027,6.06,71304.5,-10.71,-12.21,-12.35,0,*60
1484334066.59,52028,6.0,71300.8,-10.71,-12.35,-12.35,0,*6A
1484334067.81,52029,6.0,71300.8,-10.73,-12.29,-12.39,0,*68
1484334069.04,52030,6.06,71302.0,-10.73,-12.29,-12.39,0,*60
1484334070.26,52031,6.0,71300.5,-10.73,-12.29,-12.39,0,*61
1484334071.55,52032,6.0,71300.5,-10.71,-12.35,-12.35,0,*61
1484334072.83,52033,6.0,71298.0,-10.71,-12.25,-12.35,0,*61
1484334074.05,52034,6.0,71300.8,-10.73,-12.29,-12.39,0,*64
1484334075.34,52035,6.0,71302.0,-10.71,-12.35,-12.35,0,*66
1484334076.59,52036,6.0,71302.5,-10.71,-12.25,-12.39,0,*68
1484334077.83,52037,6.0,71302.8,-10.71,-12.25,-12.25,0,*64
1484334079.12,52038,6.0,71304.5,-10.71,-12.35,-12.35,0,*6B
1484334080.42,52039,6.0,71300.0,-10.71,-12.35,-12.35,0,*6A
1484334081.69,52040,6.06,71302.3,-10.71,-12.25,-12.35,0,*65
1484334082.91,52041,6.06,71304.8,-10.73,-12.29,-12.29,0,*67
1484334084.16,52042,6.0,71302.3,-10.73,-12.35,-12.25,0,*65
1484334085.38,52043,6.0,71300.0,-10.73,-12.29,-12.39,0,*64
1484334086.6,52044,6.0,71306.0,-10.73,-12.29,-12.39,0,*63
1484334087.87,52045,6.0,71304.5,-10.71,-12.25,-12.35,0,*60
1484334089.09,52046,6.0,71306.3,-10.73,-12.39,-12.39,0,*60
1484334090.36,52047,6.0,71300.3,-10.71,-12.35,-12.39,0,*6F
1484334091.62,52048,6.0,71302.8,-10.71,-12.35,-12.39,0,*60
1484334092.86,52049,6.06,71304.5,-10.71,-12.39,-12.39,0,*6D
1484334094.1,52050,6.0,71298.3,-10.71,-12.39,-12.39,0,*65
1484334095.34,52051,6.06,71302.0,-10.71,-12.39,-12.39,0,*64
1484334096.58,52052,6.0,71302.0,-10.71,-12.25,-12.39,0,*6A
1484334097.83,52053,6.0,71302.5,-10.73,-12.25,-12.35,0,*65
1484334099.12,52054,6.06,71302.8,-10.71,-12.35,-12.35,0,*61
1484334100.34,52055,6.0,71300.5,-10.73,-12.39,-12.39,0,*62
1484334101.59,52056,6.0,71300.0,-10.73,-12.39,-12.53,0,*6D
1484334102.85,52057,6.0,71302.0,-10.71,-12.35,-12.39,0,*6E
1484334104.07,52058,6.06,71300.8,-10.73,-12.39,-12.43,0,*62
1484334105.31,52059,6.0,71298.5,-10.71,-12.39,-12.39,0,*6C
1484334106.52,52060,6.0,71300.8,-10.73,-12.43,-12.43,0,*64
1484334107.74,52061,6.0,71300.0,-10.73,-12.39,-12.43,0,*68
1484334109.01,52062,6.06,71302.5,-10.71,-12.35,-12.39,0,*68
1484334110.27,52063,6.0,71302.5,-10.71,-12.35,-12.39,0,*69
1484334111.54,52064,6.0,71300.5,-10.71,-12.35,-12.39,0,*6E
1484334112.75,52065,6.0,71300.3,-10.73,-12.43,-12.43,0,*61
1484334113.97,52066,6.0,71300.3,-10.73,-12.43,-12.43,0,*62
1484334115.24,52067,6.0,71302.3,-10.71,-12.35,-12.39,0,*6D
1484334116.45,52068,6.0,71302.3,-10.73,-12.43,-12.39,0,*61
1484334117.69,52069,6.0,71302.3,-10.71,-12.39,-12.47,0,*66
1484334118.91,52070,6.0,71300.8,-10.73,-12.39,-12.39,0,*65
1484334120.17,52071,6.0,71300.5,-10.71,-12.35,-12.39,0,*6A
1484334121.41,52072,6.0,71302.5,-10.71,-12.39,-12.47,0,*6C
1484334122.63,52073,6.0,71300.8,-10.73,-12.43,-12.43,0,*66
1484334123.84,52074,6.0,71302.3,-10.73,-12.43,-12.43,0,*61
1484334125.06,52075,6.0,71300.3,-10.73,-12.43,-12.43,0,*60
1484334126.3,52076,6.0,71298.3,-10.73,-12.43,-12.53,0,*62
1484334127.57,52077,6.0,71296.0,-10.71,-12.35,-12.39,0,*6C
1484334128.82,52078,6.0,71302.5,-10.73,-12.35,-12.43,0,*6C
1484334130.06,52079,6.0,71302.0,-10.73,-12.39,-12.53,0,*60
1484334131.33,52080,6.0,71302.3,-10.71,-12.35,-12.39,0,*64
1484334132.54,52081,6.0,71302.8,-10.73,-12.39,-12.43,0,*66
1484334133.81,52082,6.0,71296.8,-10.71,-12.35,-12.39,0,*66
1484334135.08,52083,6.0,71298.8,-10.71,-12.35,-12.39,0,*67
1484334136.37,52084,6.0,71300.3,-10.71,-12.35,-12.35,0,*6C
1484334137.63,52085,6.0,71300.8,-10.71,-12.35,-12.25,0,*6C
1484334138.93,52086,6.0,71302.5,-10.71,-12.35,-12.35,0,*6E
1484334140.2,52087,6.0,71302.0,-10.71,-12.25,-12.35,0,*6E
1484334141.42,52088,6.06,71302.5,-10.73,-12.39,-12.39,0,*62
1484334142.71,52089,6.06,71304.3,-10.71,-12.35,-12.35,0,*61
1484334144.0,52090,6.0,71302.8,-10.71,-12.35,-12.35,0,*69
1484334145.3,52091,6.0,71298.0,-10.71,-12.35,-12.35,0,*68
1484334146.57,52092,6.06,71300.5,-10.71,-12.25,-12.35,0,*6A
1484334147.86,52093,6.0,71298.8,-10.71,-12.35,-12.35,0,*6A
1484334149.16,52094,6.0,71298.5,-10.71,-12.35,-12.35,0,*6D
1484334150.45,52095,6.06,71302.5,-10.71,-12.35,-12.35,0,*6C
1484334151.75,52096,6.0,71302.5,-10.71,-12.35,-12.35,0,*6F
1484334153.04,52097,6.0,71302.0,-10.71,-12.35,-12.35,0,*6E
1484334154.26,52098,6.0,71300.3,-10.73,-12.43,-12.43,0,*63
1484334155.49,52099,6.0,71296.5,-10.71,-12.39,-12.39,0,*60
1484334156.73,52100,6.0,71296.8,-10.71,-12.39,-12.39,0,*61
1484334157.97,52101,6.0,71300.5,-10.71,-12.39,-12.47,0,*69
1484334159.19,52102,6.0,71302.0,-10.73,-12.43,-12.43,0,*61
1484334160.42,52103,6.0,71296.8,-10.71,-12.39,-12.39,0,*62
1484334161.69,52104,6.0,71302.0,-10.71,-12.39,-12.53,0,*69
1484334162.96,52105,6.0,71300.8,-10.73,-12.53,-12.53,0,*66
1484334164.18,52106,6.0,71296.5,-10.73,-12.43,-12.43,0,*65
1484334165.39,52107,6.0,71300.3,-10.73,-12.39,-12.43,0,*69
1484334166.64,52108,6.0,71296.8,-10.73,-12.43,-12.53,0,*6A
1484334167.91,52109,6.0,71298.0,-10.73,-12.53,-12.53,0,*6A
1484334169.16,52110,6.0,71300.5,-10.73,-12.43,-12.53,0,*63
1484334170.4,52111,6.0,71300.3,-10.73,-12.43,-12.53,0,*62
1484334171.62,52112,6.0,71298.8,-10.73,-12.43,-12.43,0,*60
1484334172.85,52113,6.0,71298.0,-10.71,-12.39,-12.47,0,*6A
1484334174.1,52114,6.0,71300.8,-10.73,-12.43,-12.53,0,*67
1484334175.37,52115,6.0,71300.5,-10.73,-12.53,-12.57,0,*63
1484334176.63,52116,6.0,71298.5,-10.71,-12.47,-12.53,0,*63
1484334177.9,52117,6.06,71302.3,-10.73,-12.53,-12.57,0,*61
1484334179.12,52118,6.0,71300.8,-10.73,-12.43,-12.43,0,*6A
1484334180.37,52119,6.0,71298.5,-10.73,-12.53,-12.43,0,*6A
1484334181.59,52120,6.0,71300.8,-10.73,-12.43,-12.43,0,*61
1484334182.8,52121,6.0,71298.5,-10.73,-12.43,-12.43,0,*60
1484334184.04,52122,6.0,71300.8,-10.73,-12.43,-12.53,0,*62
1484334185.29,52123,6.0,71302.0,-10.73,-12.43,-12.61,0,*62
1484334186.56,52124,6.0,71300.5,-10.73,-12.53,-12.57,0,*61
1484334187.85,52125,6.0,71300.3,-10.75,-12.53,-12.53,0,*62
1484334189.15,52126,6.0,71298.3,-10.75,-12.53,-12.57,0,*65
1484334190.44,52127,6.0,71302.5,-10.75,-12.57,-12.61,0,*65
1484334191.74,52128,6.0,71300.0,-10.75,-12.53,-12.53,0,*6F
1484334193.01,52129,6.06,71300.3,-10.75,-12.53,-12.43,0,*6F
1484334194.28,52130,6.0,71300.0,-10.73,-12.53,-12.61,0,*61
1484334195.55,52131,6.0,71298.0,-10.73,-12.53,-12.57,0,*65
1484334196.79,52132,6.0,71296.3,-10.73,-12.43,-12.57,0,*67
1484334198.05,52133,6.0,71300.5,-10.75,-12.43,-12.53,0,*64
1484334199.35,52134,6.0,71296.0,-10.75,-12.53,-12.53,0,*62
1484334200.65,52135,6.0,71294.3,-10.75,-12.53,-12.57,0,*67
1484334201.89,52136,6.0,71300.3,-10.73,-12.43,-12.53,0,*67
1484334203.13,52137,6.0,71298.0,-10.73,-12.43,-12.53,0,*66
1484334204.35,52138,6.0,71298.5,-10.73,-12.43,-12.43,0,*68
1484334205.57,52139,6.0,71300.5,-10.73,-12.43,-12.43,0,*69
1484334206.78,52140,6.0,71302.0,-10.73,-12.43,-12.43,0,*67
1484334208.05,52141,6.0,71298.8,-10.73,-12.53,-12.61,0,*67
1484334209.33,52142,6.0,71298.8,-10.73,-12.57,-12.53,0,*61
1484334210.6,52143,6.0,71302.3,-10.73,-12.53,-12.53,0,*64
1484334211.84,52144,6.0,71300.5,-10.73,-12.43,-12.53,0,*62
1484334213.06,52145,6.0,71296.0,-10.73,-12.43,-12.43,0,*62
1484334214.3,52146,6.0,71296.5,-10.73,-12.43,-12.53,0,*60
1484334215.59,52147,6.0,71298.5,-10.75,-12.61,-12.61,0,*66
1484334216.88,52148,6.0,71298.0,-10.75,-12.57,-12.57,0,*69
1484334218.15,52149,6.0,71300.0,-10.75,-12.43,-12.57,0,*6D
1484334219.41,52150,6.0,71296.8,-10.75,-12.43,-12.53,0,*61
1484334220.71,52151,6.0,71296.0,-10.75,-12.53,-12.57,0,*65
1484334222.0,52152,6.0,71300.0,-10.75,-12.57,-12.61,0,*67
1484334223.29,52153,6.0,71296.3,-10.75,-12.57,-12.61,0,*66
1484334224.58,52154,6.0,71298.5,-10.75,-12.53,-12.57,0,*60
1484334225.85,52155,6.0,71300.3,-10.75,-12.43,-12.53,0,*64
1484334227.15,52156,6.0,71302.0,-10.75,-12.53,-12.53,0,*66
1484334228.41,52157,6.0,71296.0,-10.75,-12.43,-12.57,0,*62
1484334229.71,52158,6.0,71296.0,-10.75,-12.53,-12.53,0,*68
1484334231.0,52159,6.0,71298.5,-10.75,-12.57,-12.57,0,*69
1484334232.26,52160,6.0,71298.8,-10.75,-12.43,-12.57,0,*66
1484334233.56,52161,6.0,71298.0,-10.75,-12.53,-12.57,0,*66
1484334234.82,52162,6.0,71294.5,-10.75,-12.43,-12.53,0,*60
1484334236.12,52163,6.0,71298.0,-10.75,-12.53,-12.61,0,*61
1484334237.42,52164,6.0,71294.8,-10.75,-12.53,-12.53,0,*67
1484334238.71,52165,6.0,71298.8,-10.75,-12.53,-12.53,0,*66
1484334239.95,52166,6.0,71298.5,-10.77,-12.43,-12.53,0,*66
1484334241.24,52167,6.0,71298.0,-10.75,-12.53,-12.57,0,*60
1484334242.53,52168,6.0,71296.5,-10.75,-12.57,-12.57,0,*6B
1484334243.83,52169,6.0,71296.0,-10.75,-12.53,-12.61,0,*6B
1484334245.06,52170,6.0,71298.3,-10.77,-12.47,-12.61,0,*64
1484334246.3,52171,6.0,71298.5,-10.77,-12.47,-12.57,0,*60
1484334247.57,52172,6.0,71298.3,-10.75,-12.43,-12.53,0,*61
1484334248.83,52173,6.0,71296.3,-10.75,-12.43,-12.53,0,*60
1484334250.1,52174,6.0,71298.3,-10.75,-12.43,-12.53,0,*67
1484334251.37,52175,6.0,71296.3,-10.73,-12.53,-12.53,0,*61
1484334252.64,52176,6.0,71298.8,-10.73,-12.57,-12.61,0,*67
1484334253.88,52177,6.0,71298.0,-10.73,-12.43,-12.57,0,*66
1484334255.18,52178,6.0,71296.3,-10.75,-12.53,-12.57,0,*6E
1484334256.47,52179,6.0,71298.8,-10.75,-12.53,-12.57,0,*6F
1484334257.73,52180,6.0,71298.0,-10.75,-12.43,-12.57,0,*68
1484334259.0,52181,6.0,71296.5,-10.73,-12.53,-12.57,0,*6E
1484334260.24,52182,6.0,71298.8,-10.75,-12.43,-12.43,0,*6F
1484334261.48,52183,6.0,71292.8,-10.75,-12.43,-12.43,0,*6E
1484334262.75,52184,6.0,71294.0,-10.75,-12.43,-12.53,0,*68
1484334264.02,52185,6.0,71300.0,-10.75,-12.43,-12.53,0,*69
1484334265.28,52186,6.0,71294.8,-10.75,-12.43,-12.53,0,*6A
1484334266.58,52187,6.0,71294.5,-10.75,-12.53,-12.53,0,*6A
1484334267.84,52188,6.0,71296.0,-10.75,-12.43,-12.57,0,*60
1484334269.14,52189,6.0,71294.0,-10.75,-12.53,-12.61,0,*65
1484334270.44,52190,6.0,71298.3,-10.75,-12.57,-12.71,0,*68
1484334271.73,52191,6.0,71294.3,-10.75,-12.57,-12.57,0,*6D
1484334272.99,52192,6.0,71296.3,-10.75,-12.43,-12.57,0,*6B
1484334274.26,52193,6.0,71294.0,-10.75,-12.43,-12.57,0,*6A
1484334275.55,52194,6.0,71296.5,-10.75,-12.53,-12.61,0,*69
1484334276.84,52195,6.0,71292.8,-10.75,-12.57,-12.61,0,*6C
1484334278.1,52196,6.0,71292.8,-10.77,-12.61,-12.75,0,*6D
1484334279.33,52197,6.0,71292.8,-10.77,-12.47,-12.65,0,*69
1484334280.54,52198,6.0,71296.5,-10.77,-12.47,-12.47,0,*66
1484334281.84,52199,6.0,71296.3,-10.75,-12.53,-12.53,0,*65
1484334283.1,52200,6.0,71296.3,-10.77,-12.57,-12.65,0,*65
1484334284.39,52201,6.0,71296.8,-10.75,-12.61,-12.61,0,*67
1484334285.68,52202,6.0,71292.3,-10.75,-12.57,-12.61,0,*61
1484334286.94,52203,6.0,71292.0,-10.77,-12.57,-12.61,0,*62
1484334288.18,52204,6.0,71294.0,-10.75,-12.43,-12.43,0,*62
1484334289.42,52205,6.0,71292.8,-10.75,-12.43,-12.43,0,*63
1484334290.68,52206,6.0,71294.5,-10.75,-12.43,-12.53,0,*61
1484334291.92,52207,6.0,71292.3,-10.77,-12.47,-12.61,0,*67
1484334293.22,52208,6.0,71292.0,-10.75,-12.53,-12.53,0,*6E
1484334294.51,52209,6.0,71292.8,-10.75,-12.57,-12.61,0,*6A
1484334295.76,52210,6.0,71294.8,-10.77,-12.61,-12.61,0,*65
1484334297.05,52211,6.0,71292.5,-10.75,-12.57,-12.57,0,*66
1484334298.34,52212,6.0,71294.0,-10.75,-12.57,-12.61,0,*60
1484334299.63,52213,6.0,71294.3,-10.75,-12.57,-12.61,0,*61
1484334300.9,52214,6.0,71292.0,-10.75,-12.43,-12.53,0,*62
1484334302.2,52215,6.0,71294.5,-10.75,-12.53,-12.53,0,*62
1484334303.46,52216,6.0,71294.5,-10.77,-12.65,-12.61,0,*67
1484334304.75,52217,6.0,71288.8,-10.75,-12.53,-12.57,0,*64
1484334306.05,52218,6.0,71296.3,-10.75,-12.53,-12.57,0,*6B
1484334307.28,52219,6.0,71292.0,-10.77,-12.47,-12.61,0,*68
1484334308.52,52220,6.0,71294.0,-10.77,-12.47,-12.61,0,*62
1484334309.78,52221,6.0,71292.5,-10.77,-12.57,-12.57,0,*67
1484334311.07,52222,6.0,71298.8,-10.75,-12.57,-12.57,0,*66
1484334312.37,52223,6.0,71294.5,-10.75,-12.57,-12.71,0,*63
1484334313.66,52224,6.0,71294.8,-10.75,-12.57,-12.57,0,*60
1484334314.95,52225,6.0,71292.0,-10.75,-12.53,-12.61,0,*60
1484334316.21,52226,6.0,71292.8,-10.77,-12.57,-12.65,0,*61
1484334317.47,52227,6.0,71292.5,-10.75,-12.43,-12.57,0,*66
1484334318.71,52228,6.0,71294.5,-10.77,-12.47,-12.61,0,*6A
1484334319.97,52229,6.0,71294.0,-10.77,-12.57,-12.57,0,*6F
1484334321.22,52230,6.0,71290.5,-10.77,-12.57,-12.65,0,*66
1484334322.48,52231,6.0,71292.5,-10.77,-12.61,-12.65,0,*62
1484334323.74,52232,6.0,71294.8,-10.75,-12.43,-12.53,0,*66
1484334325.04,52233,6.0,71294.8,-10.75,-12.53,-12.53,0,*66
1484334326.3,52234,6.0,71294.5,-10.77,-12.57,-12.65,0,*62
1484334327.59,52235,6.0,71292.0,-10.75,-12.57,-12.61,0,*65
1484334328.85,52236,6.0,71290.8,-10.77,-12.65,-12.65,0,*61
1484334330.08,52237,6.0,71290.5,-10.77,-12.47,-12.61,0,*64
1484334331.31,52238,6.0,71292.3,-10.77,-12.47,-12.61,0,*6B
1484334332.55,52239,6.0,71294.3,-10.77,-12.43,-12.57,0,*6B
1484334333.84,52240,6.0,71288.3,-10.75,-12.53,-12.57,0,*66
1484334335.11,52241,6.0,71294.5,-10.75,-12.43,-12.57,0,*66
1484334336.4,52242,6.0,71292.5,-10.75,-12.53,-12.61,0,*61
1484334337.7,52243,6.0,71294.3,-10.75,-12.57,-12.71,0,*65
1484334338.99,52244,6.0,71292.5,-10.75,-12.57,-12.57,0,*66
1484334340.28,52245,6.0,71292.0,-10.75,-12.53,-12.61,0,*66
1484334341.51,52246,6.0,71294.5,-10.77,-12.47,-12.65,0,*66
1484334342.81,52247,6.0,71290.8,-10.75,-12.57,-12.61,0,*60
1484334344.04,52248,6.0,71294.3,-10.77,-12.47,-12.65,0,*68
1484334345.3,52249,6.0,71294.0,-10.75,-12.43,-12.57,0,*6E
1484334346.56,52250,6.0,71288.0,-10.77,-12.57,-12.65,0,*60
1484334347.86,52251,6.0,71290.5,-10.75,-12.53,-12.71,0,*62
1484334349.12,52252,6.0,71290.3,-10.77,-12.65,-12.75,0,*62
1484334350.42,52253,6.0,71288.8,-10.75,-12.53,-12.71,0,*60
1484334351.68,52254,6.0,71290.8,-10.77,-12.61,-12.65,0,*61
1484334352.94,52255,6.0,71294.8,-10.77,-12.57,-12.61,0,*61
1484334354.17,52256,6.0,71290.8,-10.77,-12.47,-12.65,0,*67
1484334355.43,52257,6.0,71290.3,-10.77,-12.61,-12.75,0,*63
1484334356.73,52258,6.0,71294.5,-10.75,-12.57,-12.71,0,*6F
1484334357.98,52259,6.06,71294.0,-10.77,-12.61,-12.65,0,*6C
1484334359.24,52260,6.0,71288.8,-10.77,-12.65,-12.79,0,*6F
1484334360.51,52261,6.0,71290.3,-10.77,-12.57,-12.75,0,*63
1484334361.8,52262,6.0,71292.5,-10.75,-12.61,-12.71,0,*63
1484334363.07,52263,6.0,71294.3,-10.77,-12.61,-12.75,0,*64
1484334364.33,52264,6.0,71294.3,-10.77,-12.57,-12.61,0,*63
1484334365.58,52265,6.0,71294.0,-10.77,-12.57,-12.65,0,*66
1484334366.84,52266,6.0,71292.0,-10.77,-12.61,-12.75,0,*61
1484334368.1,52267,6.0,71290.3,-10.77,-12.61,-12.65,0,*61
1484334369.35,52268,6.0,71288.3,-10.77,-12.61,-12.65,0,*6E
1484334370.64,52269,6.0,71290.8,-10.75,-12.61,-12.75,0,*6C
1484334371.94,52270,6.0,71288.5,-10.75,-12.53,-12.57,0,*65
1484334373.2,52271,6.0,71288.5,-10.77,-12.61,-12.79,0,*6B
1484334374.45,52272,6.0,71288.8,-10.77,-12.61,-12.65,0,*65
1484334375.71,52273,6.0,71290.8,-10.77,-12.65,-12.79,0,*6D
1484334376.95,52274,6.0,71290.3,-10.77,-12.75,-12.93,0,*6F
1484334378.22,52275,6.0,71290.5,-10.77,-12.65,-12.75,0,*67
1484334379.49,52276,6.0,71292.3,-10.75,-12.71,-12.89,0,*60
1484334380.78,52277,6.0,71290.0,-10.75,-12.71,-12.83,0,*6B
1484334382.02,52278,6.0,71290.8,-10.77,-12.75,-12.89,0,*68
1484334383.28,52279,6.0,71292.3,-10.77,-12.61,-12.75,0,*6F
1484334384.54,52280,6.0,71288.5,-10.77,-12.65,-12.79,0,*61
1484334385.8,52281,6.0,71290.8,-10.77,-12.61,-12.75,0,*68
1484334387.07,52282,6.0,71290.0,-10.77,-12.61,-12.75,0,*6B
1484334388.33,52283,6.0,71286.5,-10.77,-12.61,-12.79,0,*66
1484334389.59,52284,6.0,71290.8,-10.77,-12.65,-12.79,0,*65
1484334390.85,52285,6.0,71294.3,-10.77,-12.61,-12.75,0,*6C
1484334392.14,52286,6.0,71294.5,-10.75,-12.61,-12.75,0,*6D
1484334393.41,52287,6.0,71288.8,-10.77,-12.75,-12.79,0,*67
1484334394.65,52288,6.0,71288.0,-10.77,-12.75,-12.89,0,*67
1484334395.89,52289,6.0,71290.5,-10.77,-12.75,-12.89,0,*66
1484334397.15,52290,6.0,71290.5,-10.77,-12.65,-12.75,0,*6C
1484334398.42,52291,6.0,71288.3,-10.77,-12.65,-12.79,0,*61
1484334399.68,52292,6.0,71290.0,-10.77,-12.61,-12.79,0,*66
1484334400.94,52293,6.0,71290.0,-10.77,-12.65,-12.79,0,*63
1484334402.18,52294,6.0,71286.8,-10.77,-12.79,-12.93,0,*6D
1484334403.42,52295,6.0,71290.0,-10.77,-12.79,-12.93,0,*6C
1484334404.66,52296,6.0,71290.5,-10.77,-12.75,-12.93,0,*63
1484334405.9,52297,6.0,71290.5,-10.77,-12.75,-12.89,0,*69
1484334407.13,52298,6.0,71290.8,-10.77,-12.65,-12.89,0,*67
1484334408.43,52299,6.0,71290.8,-10.75,-12.57,-12.71,0,*62
1484334409.69,52300,6.0,71288.0,-10.77,-12.61,-12.79,0,*6C
1484334410.96,52301,6.0,71290.5,-10.77,-12.65,-12.79,0,*69
1484334412.22,52302,6.0,71292.3,-10.79,-12.65,-12.89,0,*6B
1484334413.46,52303,6.0,71290.8,-10.77,-12.79,-12.89,0,*69
1484334414.73,52304,6.0,71290.5,-10.77,-12.75,-12.79,0,*6D
1484334416.02,52305,6.0,71288.5,-10.79,-12.65,-12.79,0,*63
1484334417.31,52306,6.0,71290.3,-10.79,-12.65,-12.79,0,*60
1484334418.61,52307,6.0,71294.8,-10.79,-12.75,-12.79,0,*60
1484334419.85,52308,6.0,71288.3,-10.77,-12.79,-12.93,0,*69
1484334421.11,52309,6.0,71290.3,-10.77,-12.65,-12.79,0,*61
1484334422.37,52310,6.0,71288.5,-10.79,-12.65,-12.89,0,*68
1484334423.64,52311,6.0,71294.5,-10.77,-12.61,-12.79,0,*6C
1484334424.87,52312,6.0,71294.3,-10.77,-12.65,-12.89,0,*64
1484334426.14,52313,6.0,71286.3,-10.79,-12.75,-12.93,0,*61
1484334427.38,52314,6.0,71288.0,-10.81,-12.83,-12.97,0,*6C
1484334428.65,52315,6.0,71288.8,-10.79,-12.75,-12.89,0,*6C
1484334429.92,52316,6.0,71290.5,-10.79,-12.65,-12.89,0,*6E
1484334431.19,52317,6.0,71288.0,-10.79,-12.75,-12.93,0,*65
1484334432.42,52318,6.0,71290.5,-10.77,-12.61,-12.89,0,*6A
1484334433.69,52319,6.0,71288.3,-10.79,-12.79,-12.93,0,*67
1484334434.93,52320,6.0,71288.3,-10.79,-12.89,-12.93,0,*62
1484334436.2,52321,6.0,71288.0,-10.79,-12.75,-12.89,0,*6B
1484334437.47,52322,6.0,71290.8,-10.79,-12.75,-12.93,0,*63
1484334438.71,52323,6.0,71288.5,-10.77,-12.75,-12.93,0,*6C
1484334439.98,52324,6.0,71290.5,-10.79,-12.65,-12.89,0,*6F
1484334441.24,52325,6.0,71294.5,-10.79,-12.79,-12.93,0,*68
1484334442.51,52326,6.0,71290.5,-10.79,-12.79,-12.93,0,*6B
1484334443.73,52327,6.0,71290.5,-10.81,-12.97,-13.07,0,*61
1484334444.97,52328,6.0,71288.5,-10.79,-12.93,-12.93,0,*61
1484334446.22,52329,6.0,71290.3,-10.79,-12.93,-12.93,0,*60
1484334447.46,52330,6.0,71288.8,-10.79,-12.93,-12.93,0,*68
1484334448.68,52331,6.0,71288.5,-10.81,-12.89,-12.89,0,*6E
1484334449.92,52332,6.0,71288.0,-10.79,-12.93,-12.93,0,*6A
1484334451.17,52333,6.0,71288.5,-10.79,-12.93,-12.93,0,*6B
1484334452.41,52334,6.0,71288.5,-10.79,-12.89,-12.93,0,*67
1484334453.69,52335,6.0,71294.3,-10.79,-13.01,-13.01,0,*6D
1484334454.91,52336,6.0,71288.5,-10.81,-12.93,-13.11,0,*62
1484334456.18,52337,6.0,71286.5,-10.79,-12.93,-13.01,0,*65
1484334457.44,52338,6.0,71290.5,-10.79,-12.93,-13.01,0,*6A
1484334458.66,52339,6.0,71288.3,-10.81,-12.93,-12.97,0,*62
1484334459.87,52340,6.0,71288.3,-10.77,-12.89,-12.93,0,*6A
1484334461.12,52341,6.0,71294.3,-10.79,-12.93,-12.93,0,*6E
1484334462.34,52342,6.0,71284.0,-10.81,-12.93,-12.97,0,*6E
1484334463.58,52343,6.0,71288.5,-10.79,-12.89,-12.93,0,*67
1484334464.8,52344,6.0,71290.8,-10.81,-12.93,-12.93,0,*6C
1484334466.04,52345,6.0,71290.0,-10.79,-12.89,-12.93,0,*61
1484334467.3,52346,6.0,71290.0,-10.79,-12.89,-13.01,0,*68
1484334468.51,52347,6.0,71288.3,-10.81,-13.07,-13.07,0,*6F
1484334469.77,52348,6.0,71292.3,-10.79,-12.89,-13.01,0,*66
1484334470.99,52349,6.0,71288.0,-10.81,-12.93,-13.07,0,*6D
1484334472.27,52350,6.0,71290.0,-10.79,-13.01,-13.01,0,*6E
1484334473.51,52351,6.0,71288.5,-10.79,-12.93,-13.07,0,*63
1484334474.78,52352,6.0,71286.3,-10.79,-12.93,-13.01,0,*66
1484334475.99,52353,6.0,71290.8,-10.81,-12.93,-13.07,0,*66
1484334477.23,52354,6.0,71290.5,-10.79,-12.89,-12.89,0,*6A
1484334478.45,52355,6.0,71290.5,-10.81,-12.97,-13.07,0,*64
1484334479.66,52356,6.0,71288.8,-10.81,-12.93,-13.07,0,*63
1484334480.88,52357,6.0,71290.3,-10.81,-12.97,-13.07,0,*66
1484334482.12,52358,6.0,71292.0,-10.79,-12.93,-12.93,0,*66
1484334483.33,52359,6.0,71290.3,-10.81,-13.07,-13.07,0,*60
1484334484.55,52360,6.0,71286.8,-10.81,-13.07,-13.07,0,*6A
1484334485.81,52361,6.0,71290.0,-10.79,-12.89,-13.01,0,*6D
1484334487.07,52362,6.0,71288.3,-10.79,-12.93,-13.01,0,*65
1484334488.36,52363,6.0,71290.0,-10.79,-13.01,-13.01,0,*6E
1484334489.57,52364,6.0,71292.3,-10.81,-12.97,-13.11,0,*61
1484334490.79,52365,6.0,71288.8,-10.81,-12.93,-12.97,0,*6B
1484334492.06,52366,6.0,71290.3,-10.79,-12.93,-13.01,0,*61
1484334493.28,52367,6.0,71288.8,-10.81,-12.97,-12.97,0,*6D
1484334494.5,52368,6.0,71294.3,-10.81,-12.97,-12.97,0,*62
1484334495.71,52369,6.0,71288.5,-10.81,-12.97,-13.07,0,*6B
1484334496.93,52370,6.0,71290.8,-10.81,-13.11,-13.19,0,*63
1484334498.15,52371,6.0,71290.3,-10.81,-13.07,-13.11,0,*6D
1484334499.41,52372,6.0,71288.5,-10.79,-12.93,-13.01,0,*64
1484334500.63,52373,6.0,71288.8,-10.81,-12.93,-13.07,0,*64
1484334501.84,52374,6.0,71290.5,-10.81,-12.97,-13.07,0,*67
1484334503.06,52375,6.0,71290.0,-10.81,-13.07,-13.11,0,*69
1484334504.27,52376,6.0,71290.0,-10.81,-12.97,-13.07,0,*65
1484334505.49,52377,6.0,71290.5,-10.81,-12.97,-12.97,0,*6C
1484334506.71,52378,6.0,71288.8,-10.81,-13.07,-13.07,0,*63
1484334507.92,52379,6.0,71288.3,-10.81,-13.07,-13.07,0,*62
1484334509.14,52380,6.0,71292.0,-10.81,-12.97,-12.97,0,*64
1484334510.36,52381,6.0,71290.3,-10.81,-12.97,-12.97,0,*65